Weather Roundup
Issued by NWS Chicago, IL

Home | Current Version | Previous Version | Text Only | Print | Product List | Glossary On
Versions: 1 2 3 4 5 6 7 8 9 10 11 12 13 14 15 16 17 18 19 20 21 22 23 24 25 26 27 28 29 30 31 32 33 34 35 36 37 38 39 40 41 42 43 44 45 46 47 48 49 50
000
NZUS59 KLOT 311610
HRRLOT

CHICAGO AREA WEATHER ROUNDUP
NATIONAL WEATHER SERVICE CHICAGO/ROMEOVILLE IL
1000 AM CST SAT JAN 31 2015

NOTE: "FAIR" INDICATES FEW OR NO CLOUDS BELOW 12,000 FEET WITH NO
SIGNIFICANT WEATHER AND/OR OBSTRUCTIONS TO VISIBILITY.

* THESE STATIONS ARE NOT UNDER NWS QUALITY CONTROL. THEY ALSO MAY NOT
  REPORT WEATHER SUCH AS PRECIPITATION OR FOG.

ILZ005-006-012>014-019>023-311700-
NORTHEAST ILLINOIS

CITY           SKY/WX    TMP DP  RH WIND       PRES   REMARKS
OHARE          PTSUNNY   31  20  63 SW12      30.21F WCI  22
MIDWAY         PTSUNNY   34  22  61 SW9       30.23F WCI  27
AURORA         PTSUNNY   32  22  66 SW9       30.23S WCI  24
LANSING*       MOSUNNY   33  24  69 SW9       30.25F WCI  25
JOLIET*        MOSUNNY   32  24  71 SW6       30.24F WCI  26
WAUKEGAN       SUNNY     31  19  61 SW12      30.19F WCI  22
DUPAGE AIRPORT MOSUNNY   31  21  66 SW13      30.21F WCI  21
WHEELING       MOSUNNY   31  19  61 SW10      30.23F WCI  22
KANKAKEE*      MOSUNNY   33  27  80 SW12      30.27F WCI  24
MORRIS*        PTSUNNY   33  27  76 SW8       30.23F WCI  27
LEWIS AIRPORT* MOSUNNY   32  23  69 SW9       30.24S WCI  24
NORTHERLY IS     N/A     33  21  61 SW7         N/A  WCI  27
$$

WIZ051-052-058>065-066-070>072-311700-
SOUTHEAST WISCONSIN

CITY           SKY/WX    TMP DP  RH WIND       PRES   REMARKS
MILWAUKEE      PTSUNNY   31  18  58 W8G17     30.18S WCI  23
KENOSHA*       SUNNY     32  20  61 W15       30.18F WCI  22
RACINE*        SUNNY     32  19  58 W12       30.19F WCI  23
BURLINGTON     SUNNY     28  19  69 W9        30.18F WCI  19
WAUKESHA       SUNNY     27  18  69 W9        30.18S WCI  17
WEST BEND      SUNNY     30  18  59 W10       30.16S WCI  21
$$

INZ001>003-010>013-019-020-311700-
NORTHWEST INDIANA

CITY           SKY/WX    TMP DP  RH WIND       PRES   REMARKS
GARY*          MOSUNNY   30  19  64 SW14      30.26  WCI  20
MICHIGAN CITY* NOT AVBL
RENSSELAER*    NOT AVBL
VALPARAISO     SUNNY     31  23  72 SW16      30.26S WCI  20
$$

LMZ740>746-311700-
SOUTHERN LAKE MICHIGAN

STATION/POSITION TIME  SKY/WX   TEMP WIND        PRES    VSBY
                                AIR  DIR/SP/G
                 (UTC)          (F)  (DEG/KT/KT) (MB)    (MI)
HARRISON CRIB    1600            31  240/ 14/ 18   N/A
BURNHAM HARBOR   1600            33  250/  8/ 13   N/A
CALUMET HARBOR   1600            32  220/ 10/ 15   N/A
BURNS HARBOR     NOT AVBL
MICHIGAN CITY    1600            31  200/ 15/ 17   N/A
$$

ABBREVIATIONS USED IN REMARKS
   TC - TEMPERATURE IN CELSIUS
  WCI - WIND CHILL INDEX
   HX - HEAT INDEX
  VSB - VISIBILITY
$$


USA.gov is the U.S. government's official web portal to all federal, state and local government web resources and services.